• Join FlightAware (Why Join?)
  • Login
  • US Flag 
11:00PM EDT


 

Airport Tracker/Info


-or-


 

Live Flight TrackerFlight Track Log ✈ N904QS ✈ 08-May-2012 ✈ KDFW - KAUS

Flight Track Log - Related Links

Times and Time Zones

All times are in EDT time to prevent confusion due to time zone crossing. See the N904QS flight status page for this flight to view local times or setup timezone preferences in your user account.

Time Position Orientation Groundspeed Altitude Reporting Facility
EDT Latitude Longitude Course Direction KTS MPH feet Rate Location/Type
03:01PM 32.9400 -97.0547 238° Southwest 231 266 3,300  Level FAA TRACON SMA TRACON (SMA)
03:06PM 32.8161 -97.2919 169° South 356 410 12,800 2,040 Climbing FAA TRACON SMA TRACON (SMA)
03:06PM 32.7467 -97.2764 158° South 370 426 14,400 1,560 Climbing FAA TRACON SMA TRACON (SMA)
03:07PM 32.6825 -97.2458 158° South 402 463 14,900 360 Climbing FAA TRACON SMA TRACON (SMA)
03:08PM 32.6069 -97.2094 158° South 424 488 14,900  Level FAA TRACON SMA TRACON (SMA)
03:08PM 32.5319 -97.1736 159° South 422 486 14,900  Level FAA TRACON SMA TRACON (SMA)
03:09PM 32.4658 -97.1428 158° South 415 478 14,900  Level FAA TRACON SMA TRACON (SMA)
03:10PM 32.3928 -97.1086 159° South 405 466 14,900  Level FAA TRACON SMA TRACON (SMA)
03:10PM 32.3181 -97.0739 170° South 418 481 14,900  Level FAA TRACON SMA TRACON (SMA)
03:11PM 32.2386 -97.0567 182° South 420 483 14,900  Level FAA TRACON SMA TRACON (SMA)
03:12PM 32.1672 -97.0592 182° South 417 480 14,900  Level FAA TRACON SMA TRACON (SMA)
03:12PM 32.0881 -97.0625 182° South 410 472 14,900  Level FAA TRACON SMA TRACON (SMA)
03:13PM 32.0178 -97.0656 190° South 409 471 14,900  Level FAA TRACON SMA TRACON (SMA)
03:14PM 31.9400 -97.0817 190° South 411 473 14,900 60 Level FAA TRACON SMA TRACON (SMA)
03:15PM 31.8539 -97.1003 188° South 421 484 15,000 540 Climbing Fort Worth Center
03:16PM 31.7392 -97.1203 189° South 421 484 15,900 480 Climbing Fort Worth Center
03:17PM 31.6139 -97.1425 188° South 427 491 16,000  Climbing Fort Worth Center
03:18PM 31.4950 -97.1625 188° South 427 491 16,000  Level Fort Worth Center
03:19PM 31.3472 -97.1872 188° South 419 482 16,000  Level Houston Center
03:20PM 31.2297 -97.2075 197° South 419 482 16,000  Level Houston Center
03:21PM 31.1156 -97.2472 199° South 425 489 16,000  Level Houston Center
03:22PM 31.0094 -97.2897 198° South 425 489 16,000 -660 Level Houston Center
03:23PM 30.8931 -97.3339 198° South 425 489 14,700 -1,500 Descending Houston Center
03:24PM 30.7850 -97.3736 198° South 430 495 13,000 -1,020 Descending Houston Center
03:25PM 30.6811 -97.4136 199° South 412 474 12,700 -780 Descending Houston Center
03:26PM 30.5811 -97.4536 198° South 391 450 11,500 -1,380 Descending Houston Center
03:27PM 30.4794 -97.4911 199° South 391 450 10,000 -780 Descending Houston Center
03:28PM 30.3756 -97.5333 185° South 391 450 10,000  Level Houston Center
03:29PM 30.2894 -97.5428 182° South 367 422 10,000 -900 Level Houston Center
03:30PM 30.2081 -97.5453 188° South 322 371 8,300 -2,040 Descending Houston Center
03:31PM 30.1325 -97.5578 191° South 290 334 5,900 -2,340 Descending Houston Center
03:32PM 30.0567 -97.5750 222° Southwest 264 304 3,700 -1,500 Descending Houston Center
03:33PM 30.0194 -97.6136 310° West 214 246 3,000 -600 Descending Houston Center
03:34PM 30.0508 -97.6561 360° North 130 150 2,600 -420 Descending Houston Center
03:35PM 30.0947 -97.6564 360° North 130 150 2,200 -420 Descending Houston Center